Regional Weather Roundup
Issued by NWS

Home | Current Version | Previous Version | Graphics & Text | Print | Product List | Glossary On
Versions: 1 2 3 4 5 6 7 8 9 10 11 12 13 14 15 16 17 18 19 20 21 22 23 24 25 26 27 28 29 30 31 32 33 34 35 36 37 38 39 40 41 42 43 44 45 46 47 48 49 50
000
ASUS45 KABQ 280001
RWRNM
NEW MEXICO REGIONAL WEATHER ROUNDUP
NATIONAL WEATHER SERVICE ALBUQUERQUE NM
600 PM MDT MON JUL 27 2015

NOTE: "FAIR" MEANS FEW OR NO CLOUDS BELOW 12,000 FEET AGL WITH NO
       SIGNIFICANT WEATHER OR OBSTRUCTIONS TO VISION.

      THIS PRODUCT IS RELEASED AS TWO VERSIONS.  ONE VERSION NEAR
      THE TOP OF THE HOUR CONTAINING PRELIMINARY DATA FROM ALBUQUERQUE
      AND OTHER STATIONS.  A FINAL VERSION WITH ADDITIONAL DATA IS
      ISSUED ABOUT 10 MINUTES AFTER THE HOUR.

NMZ501-503-504-510>518-280100-
NORTHWEST PLATEAU/NORTHCENTRAL MOUNTAINS

CITY           SKY/WX    TMP DP  RH WIND       PRES   REMARKS
FARMINGTON     MOSUNNY   91  33  12 W16G23    29.98F
6HR MIN TEMP:  82; 6HR MAX TEMP:  94;

SANTA FE       SUNNY     86  44  23 W12       30.09F
6HR MIN TEMP:  78; 6HR MAX TEMP:  88;

TAOS           MOSUNNY   82  45  26 SW10G20   30.17F

$$
NMZ402-403-502-505>509-280100-
WESTCENTRAL MOUNTAINS/SOUTHWEST MOUNTAINS

CITY           SKY/WX    TMP DP  RH WIND       PRES   REMARKS
GALLUP         MOSUNNY   88  36  15 SW13G22   30.11F
6HR MIN TEMP:  82; 6HR MAX TEMP:  90;

SILVER CITY      N/A     90  43  19 W12G20    30.05F

$$
NMZ407-409-411-412-280100-
SOUTHERN DESERTS

CITY           SKY/WX    TMP DP  RH WIND       PRES   REMARKS
DEMING         SUNNY     96  44  16 W13       29.94F
6HR MIN TEMP:  89; 6HR MAX TEMP:  97;

ALAMOGORDO     MOSUNNY   99  46  16 SW8       29.92F HX  95
T OR C         CLOUDY    87  50  27 NW17      29.98S
6HR MIN TEMP:  85; 6HR MAX TEMP:  96;


$$
NMZ519>523-280100-
CENTRAL VALLEYS/CENTRAL HIGHLANDS

CITY           SKY/WX    TMP DP  RH WIND       PRES   REMARKS
ALBUQUERQUE    PTSUNNY   90  43  19 CALM      30.01F
6HR MIN TEMP:  81; 6HR MAX TEMP:  92;

DOUBLE EAGLE   PTSUNNY   90  45  20 W8        30.07F
CLINES CORNERS MOSUNNY   84  45  25 SW12G21   30.16F
6HR MIN TEMP:  79; 6HR MAX TEMP:  86;

BELEN          FAIR      91  44  20 SE6       30.01F
6HR MIN TEMP:  80; 6HR MAX TEMP:  93;

SOCORRO        NOT AVBL

$$
NMZ524>526-539-540-280100-
SOUTHCENTRAL MOUNTAINS

CITY           SKY/WX    TMP DP  RH WIND       PRES   REMARKS
RUIDOSO          N/A    N/A N/A N/A MISG        N/A

$$
NMZ527>531-280100-
NORTHEAST HIGHLANDS/NORTHEAST PLAINS

CITY           SKY/WX    TMP DP  RH WIND       PRES   REMARKS
LAS VEGAS      PTSUNNY   78  52  40 S15       30.13F
6HR MIN TEMP:  72; 6HR MAX TEMP:  86; 6HR PCP: TRACE;

RATON          PTSUNNY   87  51  28 S21G28    30.04S
6HR MIN TEMP:  81; 6HR MAX TEMP:  90;

CLAYTON        MOSUNNY   92  53  26 SW23G32   29.94F
6HR MIN TEMP:  89; 6HR MAX TEMP:  95;


$$
NMZ532>537-280100-
EASTCENTRAL PLAINS

CITY           SKY/WX    TMP DP  RH WIND       PRES   REMARKS
TUCUMCARI      MOSUNNY   96  48  19 SW12      29.89F
6HR MIN TEMP:  96; 6HR MAX TEMP: 100;

CANNON AFB     SUNNY     93  57  29 S16G24    29.93F
6HR MIN TEMP:  93; 6HR MAX TEMP:  99;

CLOVIS AIRPORT SUNNY     93  57  29 S15G24    29.95F

$$
NMZ028-029-538-280100-
SOUTHEAST PLAINS

CITY           SKY/WX    TMP DP  RH WIND       PRES   REMARKS
ROSWELL        MOSUNNY  101  49  17 S10       29.87S HX  98
6HR MIN TEMP:  97; 6HR MAX TEMP: 103;

ARTESIA        PTSUNNY   99  54  22 S16       29.87F HX  96
CARLSBAD       PTSUNNY   99  53  21 SW10      29.85F HX  96
6HR MIN TEMP:  94; 6HR MAX TEMP: 104; 6HR PCP: TRACE;

HOBBS          PTSUNNY   97  50  20 SE13G20   29.90F


$$


USA.gov is the U.S. government's official web portal to all federal, state and local government web resources and services.